Regional Weather Roundup
Issued by NWS Glasgow, MT

Home | Current Version | Previous Version | Text Only | Print | Product List | Glossary On
Versions: 1 2 3 4 5 6 7 8 9 10 11 12 13 14 15 16 17 18 19 20 21 22 23 24 25 26 27 28 29 30 31 32 33 34 35 36 37 38 39 40 41 42 43 44 45 46 47 48 49 50
000
ASUS45 KGGW 281715
RWRGGW
HOURLY REGIONAL WEATHER ROUNDUP FOR NORTHEAST MONTANA
NATIONAL WEATHER SERVICE GLASGOW MONTANA
1100 AM MDT TUE MAR 28 2017

NOTE: "FAIR" INDICATES FEW OR NO CLOUDS BELOW 12,000 FEET WITH NO
SIGNIFICANT WEATHER AND/OR OBSTRUCTIONS TO VISISBILITY.

NORTHEAST MONTANA


CITY           SKY/WX    TMP DP  RH WIND       PRES   REMARKS
GLASGOW        CLOUDY    39  34  82 SW3       30.10R
PLENTYWOOD       N/A     39  36  89 E5          N/A
WOLF POINT     CLOUDY    40  36  86 CALM      30.11R FOG
JORDAN         NOT AVBL
WINNETT          N/A     52  23  32 W7G15       N/A
SIDNEY         PTSUNNY   45  39  81 NW9       30.09R
GLENDIVE       CLOUDY    50  39  66 NW6       30.08R
MALTA            N/A     51  32  48 W6G15       N/A
SCOBEY           N/A     37  31  79 CALM      30.06R

FORT PECK REPORTS


CITY           SKY/WX    TMP DP  RH WIND       PRES   REMARKS
FORT PECK        N/A     34  33  96 S2          N/A
THE PINES        N/A     38  33  82 CALM        N/A

SOUTHEAST MONTANA


CITY           SKY/WX    TMP DP  RH WIND       PRES   REMARKS
BILLINGS       PTSUNNY   44  32  62 NW7       30.14S
MILES CITY     CLOUDY    51  34  52 NW25G35   30.07S
BAKER          PTSUNNY   52  35  52 S8        30.06S
LIVINGSTON     SUNNY     44  23  43 W14G23    30.15S

CENTRAL MONTANA


CITY           SKY/WX    TMP DP  RH WIND       PRES   REMARKS
HAVRE          SUNNY     52  28  39 SW18      30.08F
LEWISTOWN      MOSUNNY   46  24  42 W12       30.12R
GREAT FALLS    CLOUDY    47  23  38 SW18G28   30.11S
CUT BANK       PTSUNNY   47  23  38 SW28      30.05S
HELENA         PTSUNNY   48  23  37 W16       30.17S
BUTTE          PTSUNNY   37  17  44 W9        30.18R
BOZEMAN        SUNNY     44  24  45 VRB6      30.18F

WESTERN MONTANA


CITY           SKY/WX    TMP DP  RH WIND       PRES   REMARKS
MISSOULA       CLOUDY    41  35  79 E5        30.25S
KALISPELL      NOT AVBL

NORTH DAKOTA


CITY           SKY/WX    TMP DP  RH WIND       PRES   REMARKS
WILLISTON      CLOUDY    43  37  79 NE5       30.09R
DICKINSON      PTSUNNY   47  37  68 SE8       30.06S
MINOT          CLOUDY    39  37  92 E7        30.13R FOG
BISMARCK       CLOUDY    43  37  79 NE7       30.14S

SOUTHERN SASKATCHEWAN


CITY           SKY/WX    TMP DP  RH WIND       PRES   REMARKS
REGINA         CLOUDY    37  34  87 SE17      30.10F
MOOSE JAW      PTSUNNY   39  36  87 SE14      30.08F
ESTEVAN        CLOUDY    34  34 100 E15       30.11S FOG
SWIFT CURRENT  SUNNY     48  32  53 SW13G18   29.98S




USA.gov is the U.S. government's official web portal to all federal, state and local government web resources and services.